DELTA 1 DEB, 29185

Orbit data source: Space-Track

DELTA 1 DEB, 29185 is space debris in LEO originally from a launch on Thu, 11 Jan 1968 UTC launched from the Air Force Western Test Range (AFWTR). Debris objects in space refer to the collection of defunct objects orbiting the Earth. Examples of debris include non-operational satellites, rocket bodies, and fragments generated from explosions, collisions, or faulty payload assembly.

Loading next visibility...
Identifier
29185, 1968-002J
Orbit
LEO
Country
Flag of USUS
Related business
Manufacturer
Unknown
Mission
Spacecraft
Bus & Motor
Unknown
Mass
Unknown
Launch date (UTC)
1968-01-11 (58 years ago)
Launch vehicle
Unknown
Launch site
Air Force Western Test Range (AFWTR)
Object type
Payload
Rocket body
Debris
Shape & HBR
Unknown shape, 0.1 m
Radar Cross Section
Small (<0.1 m²)

Expand to show TLE details & history
Last TLE update: 2 weeks ago

TLE from 2 weeks ago
0 DELTA 1 DEB
1 29185U 68002J   26159.73564111  .00000858  00000-0  19583-2 0  9991
2 29185 105.7882 357.5915 0254260 317.2002  40.9542 13.20660240466001
Epoch: 2026-06-08T17:39Z
TLE epoch observation values (Epoch: 2026-06-08T17:39:19.391Z)
Latitude
Longitude
-164.35752°
Altitude
1,041.643 km
Speed
7.4 km/s
True Right ascension
23h 50m 21s
True Declination
0° 00' 00"
Sunlit
Object was in daylight at epoch
Visualization orbit readout
Latitude
Unknown
Longitude
Unknown
Altitude
Unknown
Speed
Unknown
Apparent Right ascension
Unknown
Apparent Declination
Unknown
Sunlit
N/A
Visualization observer readout
Local Sidereal Time
10:48:43
Azimuth
Unknown
Elevation
Unknown
Doppler factor
Unknown
Orbital elements
Apogee altitude
1,372.108 km
Perigee altitude
987.765 km
Semi-major axis
7,558.073 km
Eccentricity
0.02543
Inclination
105.7882°
RAAN
357.5915°
Arg. of periapsis
317.2002°
True anomaly
42.91048°
Mean anomaly
40.9542°
Eccentric anomaly
41.92762°
Mean motion
3.30314 °/min
Orbital period
108.99 mins
BSTAR
0.0019583
Loading maneuver chart data...
Computing Atmospheric mass density...
Loading historical data...
Loading historical data...
Loading historical data...
Loading historical data...
Loading historical data...
Loading historical data...
Loading historical data...

Documentation

Showing up to 5 results
|